This demonstration page uses our WeatherBlox Daily Observations layout. Learn more.

Left ArrowRight Arrow

Hourly Observations for February 5, 2016

Temp ( °F °C ) Dew Point ( °F °C ) Humidity (%) Winds ( mph kmh ) Pressure ( in mb ) Visibility ( mi km ) Precip ( " mm )
12:15 am 00:15 Partly Cloudy 19 -7.4 15 -9.7 84 84 SW 3 6 30.42 1030 10 16 N/A
12:35 am 00:35 Mostly Cloudy 18 -7.7 14 -10 84 84 N N/A 30.45 1031 10 16 N/A
12:55 am 00:55 Mostly Cloudy 20 -6.6 16 -9.1 83 83 SSW 3 6 30.42 1030 10 16 N/A
1:15 am 01:15 Cloudy 21 -5.9 16 -9 79 79 SSW 3 6 30.39 1029 10 16 N/A
1:35 am 01:35 Cloudy 21 -6.1 16 -9.1 80 80 SSW 5 7 30.39 1029 10 16 N/A
1:55 am 01:55 Cloudy 21 -6 16 -9 80 80 SSW 6 9 30.39 1029 10 16 N/A
2:15 am 02:15 Cloudy 22 -5.5 17 -8.6 79 79 SW 3 6 30.42 1030 10 16 N/A
2:35 am 02:35 Cloudy 23 -5.2 17 -8.5 78 78 S 3 6 30.39 1029 10 16 N/A
2:55 am 02:55 Cloudy 22 -5.3 17 -8.5 78 78 SW 8 13 30.42 1030 10 16 N/A
3:15 am 03:15 Cloudy 22 -5.5 17 -8.5 80 80 SW 8 13 30.42 1030 10 16 N/A
3:35 am 03:35 Cloudy with Light Snow 22 -5.5 17 -8.5 80 80 SW 5 7 30.39 1029 5 8 N/A
3:55 am 03:55 Cloudy with Light Snow 22 -5.7 18 -7.9 85 85 SW 6 9 30.39 1029 3 5 N/A
4:15 am 04:15 Cloudy with Light Snow 22 -5.5 19 -7.1 89 89 SW 6 9 30.39 1029 4 6 N/A
4:35 am 04:35 Cloudy with Light Snow 22 -5.3 20 -6.7 90 90 SW 7 11 30.39 1029 3 5 N/A
4:55 am 04:55 Cloudy with Light Snow 23 -5 20 -6.4 90 90 SW 6 9 30.39 1029 5 8 N/A
5:15 am 05:15 Cloudy with Light Snow 24 -4.5 22 -5.7 91 91 SW 7 11 30.36 1028 4 6 N/A
5:35 am 05:35 Cloudy with Light Snow 25 -4 23 -5 93 93 SW 8 13 30.36 1028 3 5 N/A
5:55 am 05:55 Cloudy with Light Snow 25 -3.8 23 -5 91 91 SW 9 15 30.36 1028 2 3 N/A
6:15 am 06:15 Cloudy with Light Snow 26 -3.6 24 -4.7 92 92 SW 10 17 30.36 1028 4 6 N/A
6:35 am 06:35 Cloudy with Light Snow 25 -3.8 23 -4.9 92 92 SSW 10 17 30.36 1028 4 6 N/A
6:55 am 06:55 Cloudy with Light Snow 25 -4 23 -5.1 92 92 SSW 10 17 30.36 1028 4 6 N/A
7:15 am 07:15 Cloudy with Light Snow 26 -3.3 24 -4.3 93 93 SW 9 15 30.36 1028 5 8 N/A
7:35 am 07:35 Cloudy with Light Snow 27 -3 25 -4 93 93 SW 10 17 30.36 1028 4 6 N/A
7:55 am 07:55 Cloudy with Light Snow 27 -3 25 -4 93 93 SW 10 17 30.36 1028 3 5 N/A
8:15 am 08:15 Cloudy with Light Snow 26 -3.5 24 -4.5 93 93 SW 12 19 30.36 1028 3 5 N/A
8:35 am 08:35 Cloudy with Light Snow 26 -3.2 24 -4.4 92 92 SW 10 17 30.39 1029 3 5 N/A
8:55 am 08:55 Cloudy with Light Snow 27 -3 25 -4 93 93 SW 12 19 30.39 1029 3 4 N/A
9:15 am 09:15 Cloudy with Light Snow 27 -2.6 26 -3.6 93 93 SW 9 15 30.39 1029 2 3 N/A
9:35 am 09:35 Cloudy 28 -2 26 -3.2 92 92 SW 10 17 30.36 1028 10 16 N/A
9:55 am 09:55 Mostly Cloudy 28 -2 26 -3.5 90 90 SSW 10 17 30.36 1028 10 16 N/A
10:15 am 10:15 Mostly Cloudy 29 -1.5 27 -3 90 90 SW 9 15 30.33 1027 10 16 N/A
10:35 am 10:35 Cloudy 30 -0.9 28 -2.4 90 90 SW 10 17 30.33 1027 10 16 N/A
10:55 am 10:55 Mostly Cloudy 31 -0.4 28 -2.1 88 88 SW 10 17 30.33 1027 10 16 N/A
11:15 am 11:15 Mostly Cloudy 32 0.1 28 -2 86 86 SW 8 13 30.33 1027 10 16 N/A
11:35 am 11:35 Partly Cloudy 33 0.8 29 -1.8 83 83 WSW 9 15 30.33 1027 10 16 N/A
11:55 am 11:55 Partly Cloudy 35 1.5 28 -2 78 78 W 13 20 30.30 1026 10 16 N/A
12:15 pm 12:15 Mostly Cloudy 35 1.5 28 -2.2 77 77 W 14 22 30.30 1026 10 16 N/A
12:35 pm 12:35 Sunny 35 1.6 27 -3 72 72 W 17 28 30.30 1026 10 16 N/A
12:55 pm 12:55 Sunny 35 1.5 26 -3.1 72 72 W 14 22 30.30 1026 10 16 N/A
1:15 pm 13:15 Sunny 35 1.6 26 -3.1 71 71 WNW 10 17 30.27 1025 10 16 N/A
1:35 pm 13:35 Sunny 35 1.8 26 -3.5 68 68 WNW 10 17 30.27 1025 10 16 N/A
1:55 pm 13:55 Sunny 36 2 26 -3.1 69 69 NW 8 13 30.27 1025 10 16 N/A
2:15 pm 14:15 Sunny 36 2 26 -3.3 68 68 WNW 8 13 30.27 1025 10 16 N/A
2:35 pm 14:35 Sunny 36 2 26 -3.3 68 68 WNW 9 15 30.27 1025 10 16 N/A
2:55 pm 14:55 Sunny 36 2.2 27 -3 69 69 WNW 7 11 30.27 1025 10 16 N/A
3:15 pm 15:15 Sunny 35 1.6 27 -2.6 74 74 W 8 13 30.27 1025 10 16 N/A
3:35 pm 15:35 Sunny 35 1.6 27 -2.6 74 74 WNW 7 11 30.27 1025 10 16 N/A
3:55 pm 15:55 Mostly Cloudy 35 1.5 27 -3 72 72 WNW 8 13 30.27 1025 10 16 N/A
4:15 pm 16:15 Cloudy 35 1.8 27 -2.8 72 72 WNW 9 15 30.27 1025 10 16 N/A
4:35 pm 16:35 Mostly Cloudy 35 1.6 27 -2.6 74 74 W 9 15 30.27 1025 10 16 N/A
4:55 pm 16:55 Mostly Cloudy 35 1.6 28 -2.5 74 74 WNW 7 11 30.27 1025 10 16 N/A
5:15 pm 17:15 Cloudy 35 1.7 28 -2.1 76 76 NW 9 15 30.30 1026 10 16 N/A
5:35 pm 17:35 Cloudy 36 2.1 28 -2.4 72 72 NW 12 19 30.30 1026 10 16 N/A
5:55 pm 17:55 Cloudy 35 1.9 27 -2.7 72 72 NW 9 15 30.30 1026 10 16 N/A
6:15 pm 18:15 Cloudy 33 0.6 28 -2.2 82 82 NW 7 11 30.33 1027 10 16 N/A
6:35 pm 18:35 Cloudy 33 0.8 28 -2.1 81 81 NW 6 9 30.33 1027 10 16 N/A
6:55 pm 18:55 Cloudy 34 1.3 28 -2.2 78 78 NNW 7 11 30.33 1027 10 16 N/A
7:15 pm 19:15 Cloudy 34 1.1 28 -2.4 78 78 NW 6 9 30.33 1027 10 16 N/A
7:35 pm 19:35 Cloudy 33 0.8 28 -2.5 79 79 NNW 5 7 30.33 1027 10 16 N/A
7:55 pm 19:55 Cloudy 33 0.8 27 -2.6 78 78 NNW 6 9 30.33 1027 10 16 N/A
8:15 pm 20:15 Mostly Cloudy 33 0.8 26 -3.6 73 73 NNW 8 13 30.33 1027 10 16 N/A
8:35 pm 20:35 Mostly Cloudy 32 0.1 26 -3.5 77 77 NNW 7 11 30.33 1027 10 16 N/A
8:55 pm 20:55 Partly Cloudy 32 undefined 24 -4.4 73 73 NNW 6 9 30.36 1028 10 16 N/A
9:15 pm 21:15 Clear 29 -1.7 22 -5.4 76 76 NW 6 9 30.39 1029 10 16 N/A
9:35 pm 21:35 Clear 28 -2.5 23 -5.1 83 83 NW 6 9 30.39 1029 10 16 N/A
9:55 pm 21:55 Clear 25 -4 20 -6.5 83 83 NNW 3 6 30.39 1029 10 16 N/A
10:15 pm 22:15 Clear 25 -4.1 20 -6.4 84 84 NW 5 7 30.39 1029 10 16 N/A
10:35 pm 22:35 Clear 24 -4.3 20 -6.7 84 84 NW 3 6 30.39 1029 10 16 N/A
10:55 pm 22:55 Clear 23 -5.2 19 -7 87 87 WNW 3 6 30.42 1030 10 16 N/A
11:15 pm 23:15 Clear 23 -5 20 -6.8 87 87 WNW 6 9 30.42 1030 10 16 N/A
11:35 pm 23:35 Clear 22 -5.5 19 -7.2 88 88 WNW 5 7 30.42 1030 10 16 N/A
11:55 pm 23:55 Clear 21 -6.1 18 -7.6 89 89 W 7 11 30.42 1030 10 16 N/A

Powered by AerisWeather